Location: Cella
(44.7333°N, 10.5667°E)
Time: 23:52:07
(UTC+00:00)

COSMOS 1867 COOLANT - Pass Details

Date: 19 September 2021
Orbit: 770 x 802 km, 65.0° (Epoch: 21 October)

Event Time Altitude Azimuth Distance (km) Brightness Sun altitude
Rises 19:21:52 0° 327° (NNW) 3,319 ? -21.6°
Reaches altitude 10° 19:26:10 10° 359° (N) 2,388 ? -22.3°
Maximum altitude 19:28:07 12° 20° (NNE) 2,262 ? -22.6°
Drops below altitude 10° 19:30:04 10° 41° (NE) 2,385 ? -23.0°
Enters shadow 19:30:17 10° 44° (NE) 2,413 ? -23.0°
